Hourly Data Report for July 12, 2021

WINDSOR A
ONTARIO
Current Station Operator: NAVCAN

42°16'34.000" N
82°57'19.000" W
189.60 m
6139530
71538
YQG

Download Data

Hourly Data (July 2021)
Hourly Data Report for July 12, 2021
TIME
LST
Temp Definition
°C
Dew Point Definition
°C
Rel Hum Definition
%
Precip. Amount Definition
mm

Wind Dir Definition
10's deg

Wind Spd Definition
km/h
Visibility Definition
km
Stn Press Definition
kPa
Hmdx Definition


Wind Chill Definition


Weather Definition


00:00 19.7 18.4 92 0.0 8 17 16.1 99.41     LegendNANA
01:00 19.6 18.5 93 0.0 8 13 16.1 99.43     LegendNANA
02:00 19.3 18.2 93 0.0 5 13 16.1 99.43     LegendNANA
03:00 19.3 17.8 91 0.0 4 15 16.1 99.41     LegendNANA
04:00 19.0 17.7 92 0.0 5 15 16.1 99.43     LegendNANA
05:00 19.2 17.9 92 0.0 6 11 16.1 99.48     LegendNANA
06:00 19.0 17.9 93 0.0 4 13 16.1 99.51     Rain
07:00 18.6 18.0 96 0.2 5 13 16.1 99.58     Rain
08:00 19.0 18.7 98 0.0 6 11 9.7 99.59     Fog
09:00 19.4 19.1 98 0.8 5 11 8.1 99.64     Rain, Fog
10:00 19.9 19.3 96 0.0 8 13 16.1 99.65     LegendNANA
11:00 20.3 19.3 94 0.0 7 15 16.1 99.68 27   LegendNANA
12:00 20.9 19.8 93 0.0 6 13 16.1 99.71 28   LegendNANA
13:00 21.0 19.7 92 0.0 7 11 16.1 99.71 28   LegendNANA
14:00 21.3 20.5 95 1.0 5 11 16.1 99.68 29   Rain
15:00 21.8 20.5 92 0.0 5 13 16.1 99.65 30   LegendNANA
16:00 22.9 21.2 90 0.0 8 15 16.1 99.61 31   LegendNANA
17:00 22.5 20.6 89 0.0 8 15 16.1 99.58 31   LegendNANA
18:00 22.2 20.3 89 0.0 8 13 16.1 99.60 30   LegendNANA
19:00 21.8 19.9 89 0.0 10 11 16.1 99.64 29   LegendNANA
20:00 21.1 19.6 91 0.0 11 15 16.1 99.60 28   LegendNANA
21:00 20.6 19.6 94 0.0 10 11 16.1 99.65 28   LegendNANA
22:00 20.6 19.8 95 0.0 10 11 16.1 99.63 28   LegendNANA
23:00 20.4 20.1 98 0.0 10 8 12.9 99.64 28   LegendNANA

Notes on Data Quality.

Legend

  • E = Estimated
  • M = Missing
  • NA = Not Available*
  • [empty] = Indicates an unobserved value
Date modified: